,,PA_Meas_PMT16A,,PR_Meas_QMR101_102,,RH_Meas_QMH101,,SR_Meas_QMS101,,TA_Meas_QMH101,,GenWind,,GenWind,
time,status,PA,status,PR,status,RH,status,SR,status,TA,status,DirAvg,status,SpdAvg,
2015-01-15, 00:00:04,VALID,920.128,VALID,0,VALID,95.651,VALID,0,VALID,18.9438,VALID,176,VALID,1.20586,
2015-01-15, 00:01:04,VALID,920.131,VALID,0,VALID,95.6129,VALID,0,VALID,18.9438,VALID,162,VALID,0.993359,
2015-01-15, 00:02:04,VALID,920.115,VALID,0,VALID,95.59,VALID,0,VALID,18.9633,VALID,165,VALID,1.23867,
2015-01-15, 00:03:04,VALID,920.119,VALID,0,VALID,95.5138,VALID,0,VALID,18.9828,VALID,158,VALID,1.87227,
2015-01-15, 00:04:04,VALID,920.099,VALID,0,VALID,95.4147,VALID,0,VALID,18.9828,VALID,177,VALID,1.7582,
2015-01-15, 00:05:04,VALID,920.109,VALID,0,VALID,95.3079,VALID,0,VALID,18.9828,VALID,158,VALID,1.54297,
2015-01-15, 00:06:04,VALID,920.081,VALID,0,VALID,95.1707,VALID,0,VALID,19.0218,VALID,168,VALID,1.76328,
2015-01-15, 00:07:04,VALID,920.096,VALID,0,VALID,94.8124,VALID,0,VALID,19.0622,VALID,146,VALID,1.2375,
2015-01-15, 00:08:04,VALID,920.048,VALID,0,VALID,94.3169,VALID,0,VALID,19.0608,VALID,145,VALID,0.765625,
2015-01-15, 00:09:04,VALID,920.058,VALID,0,VALID,94.0348,VALID,0,VALID,19.0413,VALID,157,VALID,0.487109,
2015-01-15, 00:10:04,VALID,920.075,VALID,0,VALID,93.8824,VALID,0,VALID,19.0218,VALID,150,VALID,1.09414,
2015-01-15, 00:11:04,VALID,920.062,VALID,0,VALID,93.7833,VALID,0,VALID,19.0218,VALID,163,VALID,1.63828,
2015-01-15, 00:12:04,VALID,920.062,VALID,0,VALID,93.5851,VALID,0,VALID,19.0218,VALID,167,VALID,1.14297,
2015-01-15, 00:13:04,VALID,920.068,VALID,0,VALID,93.5774,VALID,0,VALID,19.0023,VALID,168,VALID,0.834375,
2015-01-15, 00:14:04,VALID,920.071,VALID,0,VALID,93.6155,VALID,0,VALID,19.0037,VALID,181,VALID,1.08086,
2015-01-15, 00:15:04,VALID,920.059,VALID,0,VALID,93.7299,VALID,0,VALID,18.9828,VALID,164,VALID,1.53477,
2015-01-15, 00:16:04,VALID,920.076,VALID,0,VALID,93.6994,VALID,0,VALID,18.9828,VALID,179,VALID,1.11875,
2015-01-15, 00:17:04,VALID,920.066,VALID,0,VALID,93.6918,VALID,0,VALID,18.9828,VALID,165,VALID,0.776563,
2015-01-15, 00:18:04,VALID,920.046,VALID,0,VALID,93.7756,VALID,0,VALID,18.9438,VALID,166,VALID,0.836719,
2015-01-15, 00:19:04,VALID,920.035,VALID,0,VALID,93.8061,VALID,0,VALID,18.9243,VALID,183,VALID,0.935156,
2015-01-15, 00:20:04,VALID,920.058,VALID,0,VALID,93.8976,VALID,0,VALID,18.9438,VALID,173,VALID,0.675391,
2015-01-15, 00:21:04,VALID,920.044,VALID,0,VALID,93.8747,VALID,0,VALID,18.9257,VALID,185,VALID,0.198047,
2015-01-15, 00:22:04,VALID,920.051,VALID,0,VALID,93.8214,VALID,0,VALID,18.9243,VALID,171,VALID,0.307813,
2015-01-15, 00:23:04,VALID,920.017,VALID,0,VALID,93.6994,VALID,0,VALID,18.8853,VALID,173,VALID,0,
2015-01-15, 00:24:04,VALID,920.026,VALID,0,VALID,93.3564,VALID,0,VALID,18.8463,VALID,131,VALID,0.710156,
2015-01-15, 00:25:04,VALID,919.994,VALID,0,VALID,93.0895,VALID,0,VALID,18.8463,VALID,132,VALID,0.147656,
2015-01-15, 00:26:04,VALID,919.962,VALID,0,VALID,93.0133,VALID,0,VALID,18.8268,VALID,128,VALID,0.866016,
2015-01-15, 00:27:04,VALID,919.962,VALID,0,VALID,93.0362,VALID,0,VALID,18.7878,VALID,126,VALID,1.1375,
2015-01-15, 00:28:04,VALID,919.945,VALID,0,VALID,93.059,VALID,0,VALID,18.8073,VALID,140,VALID,0.936328,
2015-01-15, 00:29:04,VALID,919.945,VALID,0,VALID,93.1429,VALID,0,VALID,18.7683,VALID,133,VALID,1.29141,
2015-01-15, 00:30:04,VALID,919.947,VALID,0,VALID,93.2344,VALID,0,VALID,18.7892,VALID,136,VALID,0.963672,
2015-01-15, 00:31:04,VALID,919.952,VALID,0,VALID,93.303,VALID,0,VALID,18.7683,VALID,112,VALID,1.22344,
2015-01-15, 00:32:04,VALID,919.953,VALID,0,VALID,93.3564,VALID,0,VALID,18.7683,VALID,123,VALID,1.07695,
2015-01-15, 00:33:04,VALID,919.941,VALID,0,VALID,93.3487,VALID,0,VALID,18.7488,VALID,119,VALID,1.36953,
2015-01-15, 00:34:04,VALID,919.931,VALID,0,VALID,93.3945,VALID,0,VALID,18.7488,VALID,116,VALID,0.373828,
2015-01-15, 00:35:04,VALID,919.964,VALID,0,VALID,93.4707,VALID,0,VALID,18.7293,VALID,116,VALID,0.671875,
2015-01-15, 00:36:04,VALID,919.93,VALID,0,VALID,93.5698,VALID,0,VALID,18.7098,VALID,137,VALID,0.528125,
2015-01-15, 00:37:04,VALID,919.937,VALID,0,VALID,93.7223,VALID,0,VALID,18.7098,VALID,109,VALID,0,
2015-01-15, 00:38:04,VALID,919.929,VALID,0,VALID,93.7528,VALID,0,VALID,18.6708,VALID,120,VALID,0,
2015-01-15, 00:39:04,VALID,919.901,VALID,0,VALID,93.9129,VALID,0,VALID,18.6708,VALID,122,VALID,0,
2015-01-15, 00:40:04,VALID,919.92,VALID,0,VALID,94.0501,VALID,0,VALID,18.6513,VALID,113,VALID,0,
2015-01-15, 00:41:04,VALID,919.926,VALID,0,VALID,94.1949,VALID,0,VALID,18.6319,VALID,113,VALID,0,
2015-01-15, 00:42:04,VALID,919.923,VALID,0,VALID,94.355,VALID,0,VALID,18.6124,VALID,113,VALID,0,
2015-01-15, 00:43:04,VALID,919.884,VALID,0,VALID,94.6676,VALID,0,VALID,18.6124,VALID,136,VALID,0,
2015-01-15, 00:44:04,VALID,919.889,VALID,0,VALID,94.8505,VALID,0,VALID,18.6124,VALID,136,VALID,0,
2015-01-15, 00:45:04,VALID,919.872,VALID,0,VALID,95.0183,VALID,0,VALID,18.572,VALID,136,VALID,0,
2015-01-15, 00:46:04,VALID,919.888,VALID,0,VALID,95.1555,VALID,0,VALID,18.5734,VALID,136,VALID,0,
2015-01-15, 00:47:04,VALID,919.849,VALID,0,VALID,95.2393,VALID,0,VALID,18.5525,VALID,136,VALID,0,
2015-01-15, 00:48:04,VALID,919.878,VALID,0,VALID,95.3689,VALID,0,VALID,18.5539,VALID,136,VALID,0,
2015-01-15, 00:49:04,VALID,919.828,VALID,0,VALID,95.4299,VALID,0,VALID,18.5539,VALID,136,VALID,0,
2015-01-15, 00:50:04,VALID,919.83,VALID,0,VALID,95.529,VALID,0,VALID,18.5344,VALID,148,VALID,0,
2015-01-15, 00:51:04,VALID,919.829,VALID,0,VALID,95.6205,VALID,0,VALID,18.5358,VALID,149,VALID,0,
2015-01-15, 00:52:04,VALID,919.779,VALID,0,VALID,95.7044,VALID,0,VALID,18.4954,VALID,159,VALID,0,
2015-01-15, 00:53:04,VALID,919.76,VALID,0,VALID,95.8568,VALID,0,VALID,18.4954,VALID,157,VALID,0.0480469,
2015-01-15, 00:54:04,VALID,919.773,VALID,0,VALID,95.9788,VALID,0,VALID,18.4954,VALID,160,VALID,0,
2015-01-15, 00:55:04,VALID,919.733,VALID,0,VALID,96.0627,VALID,0,VALID,18.4759,VALID,164,VALID,0,
2015-01-15, 00:56:04,VALID,919.743,VALID,0,VALID,96.1541,VALID,0,VALID,18.455,VALID,172,VALID,0,
2015-01-15, 00:57:04,VALID,919.716,VALID,0,VALID,96.177,VALID,0,VALID,18.4954,VALID,172,VALID,0,
2015-01-15, 00:58:04,VALID,919.716,VALID,0,VALID,96.1846,VALID,0,VALID,18.5149,VALID,176,VALID,0,
2015-01-15, 00:59:04,VALID,919.708,VALID,0,VALID,96.1541,VALID,0,VALID,18.5539,VALID,164,VALID,0,
2015-01-15, 01:00:04,VALID,919.715,VALID,0,VALID,96.0627,VALID,0,VALID,18.5734,VALID,164,VALID,0,
2015-01-15, 01:01:04,VALID,919.709,VALID,0,VALID,95.9407,VALID,0,VALID,18.5929,VALID,164,VALID,0,
2015-01-15, 01:02:04,VALID,919.725,VALID,0,VALID,95.8416,VALID,0,VALID,18.5929,VALID,164,VALID,0,
2015-01-15, 01:03:04,VALID,919.699,VALID,0,VALID,95.7349,VALID,0,VALID,18.6124,VALID,164,VALID,0,
2015-01-15, 01:04:04,VALID,919.678,VALID,0,VALID,95.6662,VALID,0,VALID,18.6319,VALID,163,VALID,0.455859,
2015-01-15, 01:05:04,VALID,919.67,VALID,0,VALID,95.4452,VALID,0,VALID,18.7503,VALID,186,VALID,0,
2015-01-15, 01:06:04,VALID,919.632,VALID,0,VALID,95.0259,VALID,0,VALID,18.7488,VALID,177,VALID,0,
2015-01-15, 01:07:04,VALID,919.611,VALID,0,VALID,94.233,VALID,0,VALID,18.7878,VALID,177,VALID,0,
2015-01-15, 01:08:04,VALID,919.604,VALID,0,VALID,93.3411,VALID,0,VALID,18.7669,VALID,179,VALID,0,
2015-01-15, 01:09:04,VALID,919.591,VALID,0,VALID,92.8608,VALID,0,VALID,18.8268,VALID,180,VALID,0,
2015-01-15, 01:10:04,VALID,919.594,VALID,0,VALID,92.6397,VALID,0.107441,VALID,18.8073,VALID,180,VALID,0,
2015-01-15, 01:11:04,VALID,919.577,VALID,0,VALID,92.4187,VALID,0,VALID,18.8073,VALID,174,VALID,0,
2015-01-15, 01:12:04,VALID,919.581,VALID,0,VALID,92.2891,VALID,0,VALID,18.8073,VALID,161,VALID,0,
2015-01-15, 01:13:04,VALID,919.61,VALID,0,VALID,92.1442,VALID,0,VALID,18.7878,VALID,160,VALID,0,
2015-01-15, 01:14:04,VALID,919.604,VALID,0,VALID,92.068,VALID,0,VALID,18.7878,VALID,163,VALID,0,
2015-01-15, 01:15:04,VALID,919.586,VALID,0,VALID,91.664,VALID,0,VALID,18.7878,VALID,158,VALID,0.953906,
2015-01-15, 01:16:04,VALID,919.564,VALID,0,VALID,91.1227,VALID,0,VALID,18.8463,VALID,153,VALID,0.628906,
2015-01-15, 01:17:04,VALID,919.578,VALID,0,VALID,90.7949,VALID,0,VALID,18.8449,VALID,150,VALID,0.663672,
2015-01-15, 01:18:04,VALID,919.582,VALID,0,VALID,90.6348,VALID,0,VALID,18.9048,VALID,144,VALID,0.890234,
2015-01-15, 01:19:04,VALID,919.56,VALID,0,VALID,90.65,VALID,0,VALID,18.9243,VALID,139,VALID,0.861328,
2015-01-15, 01:20:04,VALID,919.578,VALID,0,VALID,90.8025,VALID,0,VALID,18.9048,VALID,138,VALID,0.75625,
2015-01-15, 01:21:04,VALID,919.584,VALID,0,VALID,91.0465,VALID,0,VALID,18.8853,VALID,138,VALID,0.708984,
2015-01-15, 01:22:04,VALID,919.569,VALID,0,VALID,91.298,VALID,0,VALID,18.8463,VALID,120,VALID,0.825781,
2015-01-15, 01:23:04,VALID,919.561,VALID,0,VALID,91.6487,VALID,0,VALID,18.8073,VALID,100,VALID,0.842578,
2015-01-15, 01:24:04,VALID,919.567,VALID,0,VALID,91.9841,VALID,0.107441,VALID,18.7474,VALID,100,VALID,0.756641,
2015-01-15, 01:25:04,VALID,919.576,VALID,0,VALID,92.19,VALID,0.107441,VALID,18.7084,VALID,112,VALID,0.550781,
2015-01-15, 01:26:04,VALID,919.583,VALID,0,VALID,92.3196,VALID,0.107441,VALID,18.6694,VALID,102,VALID,0.620703,
2015-01-15, 01:27:04,VALID,919.602,VALID,0,VALID,92.7998,VALID,0.107441,VALID,18.6694,VALID,109,VALID,0,
2015-01-15, 01:28:04,VALID,919.613,VALID,0,VALID,93.4097,VALID,0.107441,VALID,18.6304,VALID,124,VALID,0,
2015-01-15, 01:29:04,VALID,919.577,VALID,0,VALID,93.9129,VALID,0.107441,VALID,18.5914,VALID,129,VALID,0.0386719,
2015-01-15, 01:30:04,VALID,919.588,VALID,0,VALID,94.7362,VALID,0.107441,VALID,18.5525,VALID,129,VALID,0,
2015-01-15, 01:31:04,VALID,919.551,VALID,0,VALID,95.0716,VALID,0,VALID,18.533,VALID,118,VALID,0,
2015-01-15, 01:32:04,VALID,919.562,VALID,0,VALID,95.2317,VALID,0,VALID,18.5135,VALID,140,VALID,0.00429688,
2015-01-15, 01:33:04,VALID,919.55,VALID,0,VALID,95.1479,VALID,0.107441,VALID,18.5149,VALID,133,VALID,0.683594,
2015-01-15, 01:34:04,VALID,919.512,VALID,0,VALID,94.3017,VALID,0.107441,VALID,18.494,VALID,134,VALID,0.0824219,
2015-01-15, 01:35:04,VALID,919.487,VALID,0,VALID,93.3487,VALID,0.107441,VALID,18.533,VALID,133,VALID,1.43594,
2015-01-15, 01:36:04,VALID,919.464,VALID,0,VALID,92.5483,VALID,0.107441,VALID,18.572,VALID,137,VALID,1.12305,
2015-01-15, 01:37:04,VALID,919.478,VALID,0,VALID,92.0909,VALID,0.107441,VALID,18.5914,VALID,141,VALID,0.266016,
2015-01-15, 01:38:04,VALID,919.481,VALID,0,VALID,91.7173,VALID,0,VALID,18.6304,VALID,135,VALID,0.564453,
2015-01-15, 01:39:04,VALID,919.422,VALID,0,VALID,91.3743,VALID,0.107441,VALID,18.6694,VALID,141,VALID,1.46563,
2015-01-15, 01:40:04,VALID,919.402,VALID,0,VALID,91.1151,VALID,0.107441,VALID,18.7474,VALID,131,VALID,0.272266,
2015-01-15, 01:41:04,VALID,919.443,VALID,0,VALID,90.9245,VALID,0.107441,VALID,18.7669,VALID,155,VALID,0.188672,
2015-01-15, 01:42:04,VALID,919.433,VALID,0,VALID,90.8406,VALID,0,VALID,18.8059,VALID,134,VALID,1.78555,
2015-01-15, 01:43:04,VALID,919.411,VALID,0,VALID,90.7263,VALID,0.107441,VALID,18.8254,VALID,147,VALID,1.08555,
2015-01-15, 01:44:04,VALID,919.391,VALID,0,VALID,90.6043,VALID,0,VALID,18.8644,VALID,164,VALID,0.398047,
2015-01-15, 01:45:04,VALID,919.372,VALID,0,VALID,90.6348,VALID,0,VALID,18.8839,VALID,141,VALID,0.247266,
2015-01-15, 01:46:04,VALID,919.362,VALID,0,VALID,90.6577,VALID,0.107441,VALID,18.9243,VALID,159,VALID,0,
2015-01-15, 01:47:04,VALID,919.362,VALID,0,VALID,90.7034,VALID,0,VALID,18.9048,VALID,137,VALID,0,
2015-01-15, 01:48:04,VALID,919.346,VALID,0,VALID,90.8101,VALID,0,VALID,18.8839,VALID,184,VALID,0,
2015-01-15, 01:49:04,VALID,919.336,VALID,0,VALID,90.833,VALID,0.107441,VALID,18.8853,VALID,171,VALID,0.122656,
2015-01-15, 01:50:04,VALID,919.329,VALID,0,VALID,90.9473,VALID,0,VALID,18.8449,VALID,156,VALID,0,
2015-01-15, 01:51:04,VALID,919.323,VALID,0,VALID,91.0693,VALID,0.107441,VALID,18.8268,VALID,135,VALID,0,
2015-01-15, 01:52:04,VALID,919.343,VALID,0,VALID,91.2523,VALID,0,VALID,18.7878,VALID,142,VALID,0,
2015-01-15, 01:53:04,VALID,919.322,VALID,0,VALID,91.4734,VALID,0.107441,VALID,18.7474,VALID,129,VALID,0.573047,
2015-01-15, 01:54:04,VALID,919.295,VALID,0,VALID,91.6106,VALID,0,VALID,18.7293,VALID,138,VALID,0,
2015-01-15, 01:55:04,VALID,919.281,VALID,0,VALID,91.8088,VALID,0,VALID,18.7293,VALID,171,VALID,0,
2015-01-15, 01:56:04,VALID,919.286,VALID,0,VALID,92.0223,VALID,0,VALID,18.6903,VALID,146,VALID,0,
2015-01-15, 01:57:04,VALID,919.247,VALID,0,VALID,92.2281,VALID,0,VALID,18.6918,VALID,166,VALID,0,
2015-01-15, 01:58:04,VALID,919.238,VALID,0,VALID,92.472,VALID,0,VALID,18.6513,VALID,154,VALID,0,
2015-01-15, 01:59:04,VALID,919.21,VALID,0,VALID,92.7312,VALID,0,VALID,18.6528,VALID,168,VALID,0,
2015-01-15, 02:00:05,VALID,919.19,VALID,0,VALID,92.9981,VALID,0,VALID,18.6333,VALID,144,VALID,0,
2015-01-15, 02:01:05,VALID,919.153,VALID,0,VALID,93.1658,VALID,0,VALID,18.6723,VALID,149,VALID,0,
2015-01-15, 02:02:05,VALID,919.129,VALID,0,VALID,93.3106,VALID,0,VALID,18.6513,VALID,144,VALID,0,
2015-01-15, 02:03:05,VALID,919.137,VALID,0,VALID,93.4326,VALID,0,VALID,18.6723,VALID,136,VALID,0,
2015-01-15, 02:04:05,VALID,919.111,VALID,0,VALID,93.5317,VALID,0,VALID,18.6708,VALID,129,VALID,0,
2015-01-15, 02:05:05,VALID,919.069,VALID,0,VALID,93.6537,VALID,0,VALID,18.6708,VALID,130,VALID,0,
2015-01-15, 02:06:05,VALID,919.046,VALID,0,VALID,93.8519,VALID,0,VALID,18.6513,VALID,134,VALID,0.0539063,
2015-01-15, 02:07:05,VALID,919.035,VALID,0,VALID,94.0043,VALID,0,VALID,18.6708,VALID,128,VALID,0.0078125,
2015-01-15, 02:08:05,VALID,918.993,VALID,0,VALID,93.951,VALID,0,VALID,18.6918,VALID,119,VALID,0,
2015-01-15, 02:09:05,VALID,919.005,VALID,0,VALID,93.8443,VALID,0.107441,VALID,18.7084,VALID,128,VALID,0,
2015-01-15, 02:10:05,VALID,918.939,VALID,0,VALID,93.6613,VALID,0,VALID,18.7279,VALID,135,VALID,0,
2015-01-15, 02:11:05,VALID,918.967,VALID,0,VALID,93.4478,VALID,0.107441,VALID,18.7683,VALID,135,VALID,0,
2015-01-15, 02:12:05,VALID,918.941,VALID,0,VALID,93.3487,VALID,0,VALID,18.7474,VALID,135,VALID,0,
2015-01-15, 02:13:05,VALID,918.951,VALID,0,VALID,93.3716,VALID,0.107441,VALID,18.7474,VALID,135,VALID,0,
2015-01-15, 02:14:05,VALID,918.934,VALID,0,VALID,93.4478,VALID,0.107441,VALID,18.7474,VALID,135,VALID,0,
2015-01-15, 02:15:05,VALID,918.946,VALID,0,VALID,93.5393,VALID,0,VALID,18.7293,VALID,135,VALID,0,
2015-01-15, 02:16:05,VALID,918.946,VALID,0,VALID,93.7375,VALID,0.107441,VALID,18.7084,VALID,135,VALID,0,
2015-01-15, 02:17:05,VALID,918.951,VALID,0,VALID,93.9434,VALID,0,VALID,18.6694,VALID,135,VALID,0,
2015-01-15, 02:18:05,VALID,918.97,VALID,0,VALID,94.2788,VALID,0.107441,VALID,18.6694,VALID,135,VALID,0,
2015-01-15, 02:19:05,VALID,918.946,VALID,0,VALID,94.5761,VALID,0.107441,VALID,18.6499,VALID,135,VALID,0,
2015-01-15, 02:20:05,VALID,918.977,VALID,0,VALID,94.8124,VALID,0.107441,VALID,18.6304,VALID,135,VALID,0,
2015-01-15, 02:21:05,VALID,918.977,VALID,0,VALID,94.9115,VALID,0.107441,VALID,18.6109,VALID,135,VALID,0,
2015-01-15, 02:22:05,VALID,918.963,VALID,0,VALID,95.0411,VALID,0.107441,VALID,18.5914,VALID,135,VALID,0,
2015-01-15, 02:23:05,VALID,918.975,VALID,0,VALID,95.2165,VALID,0.107441,VALID,18.6109,VALID,136,VALID,0,
2015-01-15, 02:24:05,VALID,918.939,VALID,0,VALID,95.2622,VALID,0,VALID,18.6513,VALID,145,VALID,0,
2015-01-15, 02:25:05,VALID,918.947,VALID,0,VALID,95.1707,VALID,0,VALID,18.6903,VALID,148,VALID,0,
2015-01-15, 02:26:05,VALID,918.94,VALID,0,VALID,95.0716,VALID,0,VALID,18.6903,VALID,145,VALID,0,
2015-01-15, 02:27:05,VALID,918.932,VALID,0,VALID,95.0106,VALID,0,VALID,18.7098,VALID,144,VALID,0,
2015-01-15, 02:28:05,VALID,918.949,VALID,0,VALID,94.9573,VALID,0,VALID,18.7293,VALID,144,VALID,0,
2015-01-15, 02:29:05,VALID,918.908,VALID,0,VALID,94.9954,VALID,0,VALID,18.7308,VALID,144,VALID,0,
2015-01-15, 02:30:05,VALID,918.891,VALID,0,VALID,95.0335,VALID,0,VALID,18.7293,VALID,152,VALID,0,
2015-01-15, 02:31:05,VALID,918.885,VALID,0,VALID,95.0869,VALID,0,VALID,18.7308,VALID,157,VALID,0,
2015-01-15, 02:32:05,VALID,918.884,VALID,0,VALID,95.1326,VALID,0,VALID,18.7503,VALID,161,VALID,0,
2015-01-15, 02:33:05,VALID,918.89,VALID,0,VALID,95.125,VALID,0,VALID,18.7503,VALID,150,VALID,0,
2015-01-15, 02:34:05,VALID,918.889,VALID,0,VALID,95.1326,VALID,0,VALID,18.7503,VALID,143,VALID,0,
2015-01-15, 02:35:05,VALID,918.894,VALID,0,VALID,95.0869,VALID,0,VALID,18.7892,VALID,138,VALID,0,
2015-01-15, 02:36:05,VALID,918.9,VALID,0,VALID,94.942,VALID,0,VALID,18.7878,VALID,132,VALID,0,
2015-01-15, 02:37:05,VALID,918.879,VALID,0,VALID,94.5761,VALID,0,VALID,18.8463,VALID,125,VALID,0.136328,
2015-01-15, 02:38:05,VALID,918.888,VALID,0,VALID,93.9205,VALID,0,VALID,18.9062,VALID,130,VALID,0.201562,
2015-01-15, 02:39:05,VALID,918.874,VALID,0,VALID,93.4021,VALID,0,VALID,18.9229,VALID,120,VALID,0,
2015-01-15, 02:40:05,VALID,918.885,VALID,0,VALID,92.9752,VALID,0,VALID,19.0023,VALID,124,VALID,0.05,
2015-01-15, 02:41:05,VALID,918.891,VALID,0,VALID,92.6169,VALID,0,VALID,19.0203,VALID,121,VALID,0,
2015-01-15, 02:42:05,VALID,918.879,VALID,0,VALID,92.3043,VALID,0,VALID,19.0593,VALID,121,VALID,0.0855469,
2015-01-15, 02:43:05,VALID,918.879,VALID,0,VALID,91.9308,VALID,0,VALID,19.1193,VALID,127,VALID,0.367578,
2015-01-15, 02:44:05,VALID,918.879,VALID,0,VALID,91.603,VALID,0,VALID,19.1568,VALID,121,VALID,0.81875,
2015-01-15, 02:45:05,VALID,918.896,VALID,0,VALID,91.3057,VALID,0,VALID,19.2153,VALID,117,VALID,0,
2015-01-15, 02:46:05,VALID,918.885,VALID,0,VALID,91.0465,VALID,0,VALID,19.2348,VALID,122,VALID,0.291016,
2015-01-15, 02:47:05,VALID,918.888,VALID,0,VALID,90.6805,VALID,0,VALID,19.2738,VALID,112,VALID,1.01719,
2015-01-15, 02:48:05,VALID,918.898,VALID,0,VALID,90.5128,VALID,0.107441,VALID,19.3323,VALID,112,VALID,0.0644531,
2015-01-15, 02:49:05,VALID,918.886,VALID,0,VALID,90.3985,VALID,0,VALID,19.3323,VALID,120,VALID,0.262109,
2015-01-15, 02:50:05,VALID,918.879,VALID,0,VALID,90.3527,VALID,0,VALID,19.3728,VALID,121,VALID,0,
2015-01-15, 02:51:05,VALID,918.892,VALID,0,VALID,90.2841,VALID,0,VALID,19.3728,VALID,116,VALID,0.360547,
2015-01-15, 02:52:05,VALID,918.883,VALID,0,VALID,90.2841,VALID,0,VALID,19.3728,VALID,116,VALID,0.253906,
2015-01-15, 02:53:05,VALID,918.837,VALID,0,VALID,90.3527,VALID,0,VALID,19.3728,VALID,99,VALID,0,
2015-01-15, 02:54:05,VALID,918.827,VALID,0,VALID,90.4137,VALID,0,VALID,19.3518,VALID,109,VALID,0,
2015-01-15, 02:55:05,VALID,918.831,VALID,0,VALID,90.4137,VALID,0,VALID,19.3518,VALID,116,VALID,0,
2015-01-15, 02:56:05,VALID,918.845,VALID,0,VALID,90.5281,VALID,0,VALID,19.3533,VALID,110,VALID,0,
2015-01-15, 02:57:05,VALID,918.824,VALID,0,VALID,90.3375,VALID,0,VALID,19.3728,VALID,127,VALID,0.0121094,
2015-01-15, 02:58:05,VALID,918.812,VALID,0,VALID,90.185,VALID,0,VALID,19.3713,VALID,133,VALID,0.131641,
2015-01-15, 02:59:05,VALID,918.811,VALID,0,VALID,90.1316,VALID,0,VALID,19.3908,VALID,128,VALID,0,
2015-01-15, 03:00:05,VALID,918.791,VALID,0,VALID,90.0173,VALID,0.107441,VALID,19.4103,VALID,124,VALID,0.00195313,
2015-01-15, 03:01:05,VALID,918.802,VALID,0,VALID,90.0935,VALID,0,VALID,19.4103,VALID,113,VALID,0,
2015-01-15, 03:02:05,VALID,918.787,VALID,0,VALID,90.1774,VALID,0.107441,VALID,19.4103,VALID,130,VALID,0,
2015-01-15, 03:03:05,VALID,918.795,VALID,0,VALID,90.2384,VALID,0,VALID,19.3908,VALID,140,VALID,0,
2015-01-15, 03:04:05,VALID,918.783,VALID,0,VALID,90.368,VALID,0,VALID,19.4118,VALID,140,VALID,0,
2015-01-15, 03:05:05,VALID,918.77,VALID,0,VALID,90.4518,VALID,0.107441,VALID,19.3713,VALID,141,VALID,0,
2015-01-15, 03:06:05,VALID,918.794,VALID,0,VALID,90.5814,VALID,0.107441,VALID,19.3728,VALID,146,VALID,0,
2015-01-15, 03:07:05,VALID,918.805,VALID,0,VALID,90.6729,VALID,0,VALID,19.3323,VALID,146,VALID,0,
2015-01-15, 03:08:05,VALID,918.78,VALID,0,VALID,90.7873,VALID,0,VALID,19.3338,VALID,148,VALID,0,
2015-01-15, 03:09:05,VALID,918.756,VALID,0,VALID,90.7568,VALID,0,VALID,19.2753,VALID,163,VALID,0,
2015-01-15, 03:10:05,VALID,918.759,VALID,0,VALID,90.7873,VALID,0,VALID,19.2572,VALID,158,VALID,0,
2015-01-15, 03:11:05,VALID,918.751,VALID,0,VALID,90.8787,VALID,0,VALID,19.2168,VALID,170,VALID,0,
2015-01-15, 03:12:05,VALID,918.766,VALID,0,VALID,91.0465,VALID,0,VALID,19.1973,VALID,164,VALID,0,
2015-01-15, 03:13:05,VALID,918.714,VALID,0,VALID,91.1913,VALID,0,VALID,19.1583,VALID,160,VALID,0,
2015-01-15, 03:14:05,VALID,918.715,VALID,0,VALID,91.4734,VALID,0,VALID,19.1597,VALID,160,VALID,0,
2015-01-15, 03:15:05,VALID,918.724,VALID,0,VALID,91.4734,VALID,0,VALID,19.1193,VALID,155,VALID,0,
2015-01-15, 03:16:05,VALID,918.702,VALID,0,VALID,91.5115,VALID,0,VALID,19.1388,VALID,169,VALID,0,
2015-01-15, 03:17:05,VALID,918.707,VALID,0,VALID,91.3895,VALID,0,VALID,19.1193,VALID,154,VALID,0.0796875,
2015-01-15, 03:18:05,VALID,918.718,VALID,0,VALID,91.3285,VALID,0,VALID,19.1388,VALID,157,VALID,0,
2015-01-15, 03:19:05,VALID,918.722,VALID,0,VALID,91.3819,VALID,0,VALID,19.1388,VALID,140,VALID,0,
2015-01-15, 03:20:05,VALID,918.729,VALID,0,VALID,91.1684,VALID,0,VALID,19.1388,VALID,136,VALID,0.203906,
2015-01-15, 03:21:05,VALID,918.697,VALID,0,VALID,90.9473,VALID,0,VALID,19.1792,VALID,146,VALID,0,
2015-01-15, 03:22:05,VALID,918.709,VALID,0,VALID,90.7796,VALID,0,VALID,19.1778,VALID,139,VALID,0,
2015-01-15, 03:23:05,VALID,918.711,VALID,0,VALID,90.6348,VALID,0,VALID,19.1973,VALID,146,VALID,0,
2015-01-15, 03:24:05,VALID,918.7,VALID,0,VALID,90.3832,VALID,0,VALID,19.2348,VALID,148,VALID,0,
2015-01-15, 03:25:05,VALID,918.743,VALID,0,VALID,90.246,VALID,0,VALID,19.2543,VALID,147,VALID,0,
2015-01-15, 03:26:05,VALID,918.694,VALID,0,VALID,90.1621,VALID,0.107441,VALID,19.2543,VALID,141,VALID,0,
2015-01-15, 03:27:05,VALID,918.7,VALID,0,VALID,90.1698,VALID,0.107441,VALID,19.2558,VALID,140,VALID,0.278125,
2015-01-15, 03:28:05,VALID,918.719,VALID,0,VALID,90.0783,VALID,0,VALID,19.2543,VALID,139,VALID,0,
2015-01-15, 03:29:05,VALID,918.722,VALID,0,VALID,90.0249,VALID,0,VALID,19.2348,VALID,134,VALID,0,
2015-01-15, 03:30:05,VALID,918.684,VALID,0,VALID,90.0859,VALID,0,VALID,19.2543,VALID,138,VALID,0,
2015-01-15, 03:31:05,VALID,918.68,VALID,0,VALID,89.9334,VALID,0,VALID,19.2753,VALID,139,VALID,0,
2015-01-15, 03:32:05,VALID,918.688,VALID,0,VALID,89.7352,VALID,0,VALID,19.2753,VALID,135,VALID,0,
2015-01-15, 03:33:05,VALID,918.669,VALID,0,VALID,89.7124,VALID,0,VALID,19.2738,VALID,129,VALID,0,
2015-01-15, 03:34:05,VALID,918.706,VALID,0,VALID,89.7047,VALID,0,VALID,19.2948,VALID,142,VALID,0,
2015-01-15, 03:35:05,VALID,918.695,VALID,0,VALID,89.6895,VALID,0,VALID,19.2948,VALID,142,VALID,0,
2015-01-15, 03:36:05,VALID,918.699,VALID,0,VALID,89.8496,VALID,0,VALID,19.2738,VALID,142,VALID,0,
2015-01-15, 03:37:05,VALID,918.688,VALID,0,VALID,89.8648,VALID,0,VALID,19.2738,VALID,142,VALID,0,
2015-01-15, 03:38:05,VALID,918.677,VALID,0,VALID,89.9334,VALID,0.107441,VALID,19.2738,VALID,142,VALID,0,
2015-01-15, 03:39:05,VALID,918.697,VALID,0,VALID,89.8572,VALID,0,VALID,19.2543,VALID,141,VALID,0,
2015-01-15, 03:40:05,VALID,918.707,VALID,0,VALID,89.9182,VALID,0.107441,VALID,19.2558,VALID,141,VALID,0,
2015-01-15, 03:41:05,VALID,918.677,VALID,0,VALID,89.9182,VALID,0.107441,VALID,19.2153,VALID,144,VALID,0,
2015-01-15, 03:42:05,VALID,918.655,VALID,0,VALID,90.0325,VALID,0,VALID,19.2363,VALID,172,VALID,0.236328,
2015-01-15, 03:43:05,VALID,918.616,VALID,0,VALID,89.9029,VALID,0.107441,VALID,19.2348,VALID,162,VALID,0,
2015-01-15, 03:44:05,VALID,918.619,VALID,0,VALID,89.7429,VALID,0.107441,VALID,19.2153,VALID,166,VALID,0.493359,
2015-01-15, 03:45:05,VALID,918.602,VALID,0,VALID,89.4227,VALID,0.107441,VALID,19.2738,VALID,155,VALID,0,
2015-01-15, 03:46:05,VALID,918.6,VALID,0,VALID,89.3388,VALID,0,VALID,19.2738,VALID,165,VALID,0.318359,
2015-01-15, 03:47:05,VALID,918.621,VALID,0,VALID,89.3159,VALID,0,VALID,19.2738,VALID,170,VALID,0.00195313,
2015-01-15, 03:48:05,VALID,918.595,VALID,0,VALID,89.4837,VALID,0,VALID,19.2738,VALID,165,VALID,0,
2015-01-15, 03:49:05,VALID,918.576,VALID,0,VALID,89.6437,VALID,0.107441,VALID,19.2543,VALID,167,VALID,0,
2015-01-15, 03:50:05,VALID,918.557,VALID,0,VALID,89.7733,VALID,0.107441,VALID,19.2543,VALID,172,VALID,0,